Terminal Aerodrome Forecast
Issued by NWS

Home | Current Version | Previous Version | Graphics & Text | Print | Product List | Glossary On
Versions: 1 2 3 4 5 6 7 8 9 10 11 12 13
000
FTUS45 KGGW 290500
TAFSDY
TAF
KSDY 290537Z 2906/3006 VRB03KT P6SM SCT120
     FM291600 23008KT P6SM VCSH BKN050 OVC080
     FM292100 30013G23KT P6SM BKN080
      AMD LTD TO CLD VIS AND WIND=

USA.gov is the U.S. government's official web portal to all federal, state and local government web resources and services.